| time (UTC) | temp F | wind direction | speed MPH | gust MPH | rain 1hr in | rain 24hr in | rain mn in | humidity % | barometer mb |
| 20260831034042 | 55 | 0 | 0.0 | 0.0 | 0.00 | 0.00 | 0.00 | 68 | 1014.0 |
| 20260831033542 | 55 | 0 | 0.0 | 0.0 | 0.00 | 0.00 | 0.00 | 68 | 1013.8 |
| 20260831033042 | 55 | 0 | 0.0 | 0.0 | 0.00 | 0.00 | 0.00 | 69 | 1014.2 |
| 20260831032543 | 55 | 0 | 0.0 | 0.0 | 0.00 | 0.00 | 0.00 | 69 | 1014.2 |
| 20260831032042 | 55 | 0 | 0.0 | 0.0 | 0.00 | 0.00 | 0.00 | 69 | 1014.0 |
| 20260831031542 | 54 | 0 | 0.0 | 1.0 | 0.00 | 0.00 | 0.00 | 70 | 1014.2 |
| 20260831031042 | 54 | 0 | 0.0 | 1.0 | 0.00 | 0.00 | 0.00 | 71 | 1014.0 |
| 20260831030542 | 54 | 57 | 0.0 | 1.0 | 0.00 | 0.00 | 0.00 | 70 | 1014.0 |
| 20260831030042 | 54 | 57 | 0.0 | 0.0 | 0.00 | 0.00 | 0.00 | 71 | 1014.4 |
| 20260831025542 | 54 | 77 | 0.0 | 4.0 | 0.00 | 0.00 | 0.00 | 71 | 1014.0 |
| 20260831025042 | 54 | 64 | 0.0 | 4.0 | 0.00 | 0.00 | 0.00 | 71 | 1014.0 |
| 20260831024542 | 55 | 75 | 0.0 | 4.0 | 0.00 | 0.00 | 0.00 | 71 | 1014.1 |
| 20260831024042 | 54 | 54 | 0.0 | 1.0 | 0.00 | 0.00 | 0.00 | 71 | 1014.1 |
| 20260831023542 | 55 | 53 | 0.0 | 5.0 | 0.00 | 0.00 | 0.00 | 70 | 1014.1 |
| 20260831023042 | 55 | 58 | 0.0 | 5.0 | 0.00 | 0.00 | 0.00 | 69 | 1015.1 |
| 20260831022542 | 55 | 51 | 0.0 | 5.0 | 0.00 | 0.00 | 0.00 | 70 | 1014.2 |
| 20260831022042 | 55 | 0 | 0.0 | 0.0 | 0.00 | 0.00 | 0.00 | 70 | 1014.4 |
| 20260831021542 | 55 | 0 | 0.0 | 2.0 | 0.00 | 0.00 | 0.00 | 70 | 1014.3 |
| 20260831021042 | 55 | 64 | 0.0 | 2.0 | 0.00 | 0.00 | 0.00 | 70 | 1014.3 |
| 20260831020542 | 55 | 60 | 0.0 | 2.0 | 0.00 | 0.00 | 0.00 | 69 | 1014.6 |
| 20260831020042 | 55 | 74 | 0.0 | 1.0 | 0.00 | 0.00 | 0.00 | 69 | 1014.3 |
| 20260831015542 | 55 | 0 | 0.0 | 0.0 | 0.00 | 0.00 | 0.00 | 69 | 1014.3 |
| 20260831015042 | 56 | 0 | 0.0 | 0.0 | 0.00 | 0.00 | 0.00 | 69 | 1014.4 |
| 20260831014542 | 55 | 0 | 0.0 | 0.0 | 0.00 | 0.00 | 0.00 | 68 | 1014.5 |
| 20260831014042 | 55 | 0 | 0.0 | 0.0 | 0.00 | 0.00 | 0.00 | 69 | 1014.8 |
| 20260831013542 | 55 | 0 | 0.0 | 0.0 | 0.00 | 0.00 | 0.00 | 70 | 1015.4 |
| 20260831013042 | 55 | 0 | 0.0 | 0.0 | 0.00 | 0.00 | 0.00 | 69 | 1014.6 |
| 20260831012542 | 55 | 0 | 0.0 | 0.0 | 0.00 | 0.00 | 0.00 | 69 | 1014.6 |
| 20260831012042 | 55 | 0 | 0.0 | 0.0 | 0.00 | 0.00 | 0.00 | 70 | 1015.3 |
| 20260831011542 | 55 | 0 | 0.0 | 0.0 | 0.00 | 0.00 | 0.00 | 70 | 1014.8 |
| 20260831011042 | 55 | 0 | 0.0 | 0.0 | 0.00 | 0.00 | 0.00 | 70 | 1015.2 |
| 20260831010542 | 55 | 0 | 0.0 | 0.0 | 0.00 | 0.00 | 0.00 | 70 | 1014.8 |
| 20260831010042 | 55 | 0 | 0.0 | 0.0 | 0.00 | 0.00 | 0.00 | 69 | 1015.4 |
| 20260831005542 | 55 | 0 | 0.0 | 0.0 | 0.00 | 0.00 | 0.00 | 69 | 1015.2 |
| 20260831005042 | 55 | 0 | 0.0 | 0.0 | 0.00 | 0.00 | 0.00 | 69 | 1015.5 |
| 20260831004542 | 55 | 0 | 0.0 | 0.0 | 0.00 | 0.00 | 0.00 | 68 | 1015.1 |
| 20260831004042 | 56 | 0 | 0.0 | 0.0 | 0.00 | 0.00 | 0.00 | 68 | 1015.4 |
| 20260831003542 | 56 | 0 | 0.0 | 0.0 | 0.00 | 0.00 | 0.00 | 68 | 1015.3 |
| 20260831003042 | 56 | 0 | 0.0 | 0.0 | 0.00 | 0.00 | 0.00 | 68 | 1016.5 |
| 20260831002542 | 56 | 0 | 0.0 | 0.0 | 0.00 | 0.00 | 0.00 | 68 | 1016.0 |
| 20260831002042 | 56 | 0 | 0.0 | 1.0 | 0.00 | 0.00 | 0.00 | 67 | 1015.6 |
| 20260831001542 | 56 | 352 | 0.0 | 1.0 | 0.00 | 0.00 | 0.00 | 67 | 1015.7 |
| 20260831001042 | 56 | 29 | 0.0 | 1.0 | 0.00 | 0.00 | 0.00 | 67 | 1015.5 |
| 20260831000542 | 56 | 0 | 0.0 | 0.0 | 0.00 | 0.00 | 0.00 | 67 | 1015.3 |
| 20260831000042 | 56 | 0 | 0.0 | 5.0 | 0.00 | 0.00 | 0.00 | 66 | 1016.1 |
| 20260830235542 | 57 | 0 | 0.0 | 5.0 | 0.00 | 0.00 | 0.00 | 66 | 1016.0 |
| 20260830235041 | 57 | 53 | 0.0 | 5.0 | 0.00 | 0.00 | 0.00 | 66 | 1015.4 |
| 20260830234541 | 57 | 326 | 1.0 | 1.0 | 0.00 | 0.00 | 0.00 | 66 | 1016.1 |
| 20260830234042 | 57 | 0 | 0.0 | 0.0 | 0.00 | 0.00 | 0.00 | 67 | 1015.4 |
| 20260830233541 | 56 | 324 | 0.0 | 3.0 | 0.00 | 0.00 | 0.00 | 67 | 1015.9 |
| 20260830233041 | 57 | 0 | 0.0 | 3.0 | 0.00 | 0.00 | 0.00 | 66 | 1015.7 |
| 20260830232541 | 57 | 21 | 0.0 | 3.0 | 0.00 | 0.00 | 0.00 | 66 | 1015.6 |
| 20260830232042 | 57 | 0 | 0.0 | 2.0 | 0.00 | 0.00 | 0.00 | 66 | 1015.6 |
| 20260830231541 | 57 | 336 | 0.0 | 2.0 | 0.00 | 0.00 | 0.00 | 66 | 1016.1 |
| 20260830231041 | 57 | 0 | 0.0 | 0.0 | 0.00 | 0.00 | 0.00 | 65 | 1016.1 |
| 20260830230541 | 57 | 0 | 0.0 | 3.0 | 0.00 | 0.00 | 0.00 | 65 | 1015.9 |
| 20260830230041 | 57 | 333 | 0.0 | 3.0 | 0.00 | 0.00 | 0.00 | 66 | 1016.3 |
| 20260830225541 | 57 | 341 | 0.0 | 3.0 | 0.00 | 0.00 | 0.00 | 66 | 1016.0 |
| 20260830225041 | 57 | 315 | 0.0 | 1.0 | 0.00 | 0.00 | 0.00 | 64 | 1016.0 |
| 20260830224542 | 57 | 343 | 0.0 | 3.0 | 0.00 | 0.00 | 0.00 | 65 | 1016.1 |
| 20260830224041 | 57 | 330 | 0.0 | 3.0 | 0.00 | 0.00 | 0.00 | 65 | 1016.4 |
| 20260830223541 | 57 | 22 | 0.0 | 3.0 | 0.00 | 0.00 | 0.00 | 64 | 1016.1 |
| 20260830223041 | 57 | 0 | 0.0 | 2.0 | 0.00 | 0.00 | 0.00 | 64 | 1016.2 |
| 20260830222541 | 57 | 0 | 0.0 | 2.0 | 0.00 | 0.00 | 0.00 | 64 | 1016.2 |
| 20260830222041 | 58 | 32 | 0.0 | 2.0 | 0.00 | 0.00 | 0.00 | 64 | 1016.6 |
| 20260830221541 | 57 | 51 | 0.0 | 1.0 | 0.00 | 0.00 | 0.00 | 63 | 1016.4 |
| 20260830221041 | 58 | 327 | 0.0 | 3.0 | 0.00 | 0.00 | 0.00 | 63 | 1016.4 |
| 20260830220541 | 58 | 33 | 0.0 | 3.0 | 0.00 | 0.00 | 0.00 | 63 | 1016.4 |
| 20260830220041 | 58 | 36 | 0.0 | 3.0 | 0.00 | 0.00 | 0.00 | 62 | 1016.5 |
| 20260830215541 | 58 | 334 | 0.0 | 1.0 | 0.00 | 0.00 | 0.00 | 63 | 1016.6 |
| 20260830215041 | 58 | 0 | 0.0 | 1.0 | 0.00 | 0.00 | 0.00 | 62 | 1016.9 |
| 20260830214541 | 58 | 357 | 0.0 | 1.0 | 0.00 | 0.00 | 0.00 | 61 | 1016.5 |
| 20260830214041 | 58 | 29 | 0.0 | 1.0 | 0.00 | 0.00 | 0.00 | 61 | 1017.0 |
| 20260830213542 | 58 | 0 | 0.0 | 0.0 | 0.00 | 0.00 | 0.00 | 61 | 1017.0 |
| 20260830213041 | 58 | 0 | 0.0 | 0.0 | 0.00 | 0.00 | 0.00 | 60 | 1016.7 |
| 20260830212541 | 58 | 0 | 0.0 | 0.0 | 0.00 | 0.00 | 0.00 | 60 | 1016.7 |
| 20260830212041 | 58 | 357 | 0.0 | 0.0 | 0.00 | 0.00 | 0.00 | 60 | 1016.9 |
| 20260830211541 | 57 | 0 | 0.0 | 2.0 | 0.00 | 0.00 | 0.00 | 59 | 1016.9 |
| 20260830211041 | 58 | 0 | 0.0 | 2.0 | 0.00 | 0.00 | 0.00 | 59 | 1017.3 |
| 20260830210541 | 58 | 47 | 0.0 | 2.0 | 0.00 | 0.00 | 0.00 | 59 | 1017.0 |
| 20260830210041 | 57 | 33 | 0.0 | 2.0 | 0.00 | 0.00 | 0.00 | 59 | 1017.3 |
| 20260830205541 | 58 | 42 | 0.0 | 1.0 | 0.00 | 0.00 | 0.00 | 57 | 1017.0 |
| 20260830205041 | 57 | 46 | 0.0 | 1.0 | 0.00 | 0.00 | 0.00 | 59 | 1017.3 |
| 20260830204541 | 57 | 64 | 0.0 | 0.0 | 0.00 | 0.00 | 0.00 | 58 | 1017.5 |
| 20260830204041 | 57 | 64 | 0.0 | 0.0 | 0.00 | 0.00 | 0.00 | 57 | 1017.5 |
| 20260830203541 | 57 | 0 | 0.0 | 0.0 | 0.00 | 0.00 | 0.00 | 57 | 1017.1 |
| 20260830203041 | 57 | 0 | 0.0 | 0.0 | 0.00 | 0.00 | 0.00 | 57 | 1018.1 |
| 20260830202542 | 57 | 0 | 0.0 | 0.0 | 0.00 | 0.00 | 0.00 | 57 | 1017.5 |
| 20260830202042 | 57 | 0 | 0.0 | 0.0 | 0.00 | 0.00 | 0.00 | 58 | 1017.5 |
| 20260830201541 | 56 | 0 | 0.0 | 0.0 | 0.00 | 0.00 | 0.00 | 58 | 1017.2 |
| 20260830201041 | 56 | 64 | 0.0 | 0.0 | 0.00 | 0.00 | 0.00 | 59 | 1017.4 |
| 20260830200541 | 56 | 0 | 0.0 | 0.0 | 0.00 | 0.00 | 0.00 | 60 | 1017.5 |
| 20260830200041 | 56 | 0 | 0.0 | 0.0 | 0.00 | 0.00 | 0.00 | 62 | 1017.7 |
| 20260830195541 | 55 | 0 | 0.0 | 0.0 | 0.00 | 0.00 | 0.00 | 62 | 1017.4 |
| 20260830195041 | 55 | 0 | 0.0 | 0.0 | 0.00 | 0.00 | 0.00 | 62 | 1018.1 |
| 20260830194541 | 55 | 0 | 0.0 | 0.0 | 0.00 | 0.00 | 0.00 | 62 | 1017.9 |
| 20260830194041 | 55 | 0 | 0.0 | 0.0 | 0.00 | 0.00 | 0.00 | 62 | 1017.4 |
| 20260830193541 | 55 | 0 | 0.0 | 0.0 | 0.00 | 0.00 | 0.00 | 60 | 1017.6 |
| 20260830193041 | 55 | 0 | 0.0 | 1.0 | 0.00 | 0.00 | 0.00 | 60 | 1017.4 |
| 20260830192541 | 54 | 0 | 0.0 | 1.0 | 0.00 | 0.00 | 0.00 | 62 | 1018.1 |
| 20260830192041 | 54 | 21 | 0.0 | 1.0 | 0.00 | 0.00 | 0.00 | 62 | 1017.4 |
| 20260830191541 | 54 | 0 | 0.0 | 0.0 | 0.00 | 0.00 | 0.00 | 63 | 1017.5 |
| 20260830191041 | 53 | 0 | 0.0 | 0.0 | 0.00 | 0.00 | 0.00 | 64 | 1017.9 |
| 20260830190541 | 53 | 0 | 0.0 | 3.0 | 0.00 | 0.00 | 0.00 | 64 | 1017.9 |
| 20260830190041 | 53 | 37 | 0.0 | 3.0 | 0.00 | 0.00 | 0.00 | 64 | 1017.9 |
| 20260830185541 | 53 | 54 | 0.0 | 3.0 | 0.00 | 0.00 | 0.00 | 65 | 1017.5 |
| 20260830185041 | 52 | 295 | 1.0 | 1.0 | 0.00 | 0.00 | 0.00 | 64 | 1017.6 |
| 20260830184541 | 52 | 295 | 0.0 | 4.0 | 0.00 | 0.00 | 0.00 | 66 | 1018.0 |
| 20260830184041 | 52 | 291 | 0.0 | 4.0 | 0.00 | 0.00 | 0.00 | 66 | 1017.6 |
| 20260830183541 | 52 | 49 | 0.0 | 4.0 | 0.00 | 0.00 | 0.00 | 68 | 1017.9 |
| 20260830183041 | 51 | 26 | 0.0 | 4.0 | 0.00 | 0.00 | 0.00 | 68 | 1017.6 |
| 20260830182541 | 51 | 49 | 0.0 | 4.0 | 0.00 | 0.00 | 0.00 | 68 | 1017.6 |
| 20260830182041 | 51 | 61 | 0.0 | 4.0 | 0.00 | 0.00 | 0.00 | 69 | 1018.5 |
| 20260830181541 | 51 | 74 | 0.0 | 3.0 | 0.00 | 0.00 | 0.00 | 64 | 1017.7 |
| 20260830181041 | 51 | 78 | 0.0 | 3.0 | 0.00 | 0.00 | 0.00 | 70 | 1017.9 |
| 20260830180541 | 51 | 0 | 0.0 | 0.0 | 0.00 | 0.00 | 0.00 | 69 | 1017.7 |
| 20260830180041 | 51 | 0 | 0.0 | 0.0 | 0.00 | 0.00 | 0.00 | 71 | 1017.9 |
| 20260830175541 | 50 | 0 | 0.0 | 0.0 | 0.00 | 0.00 | 0.00 | 72 | 1017.5 |
| 20260830175041 | 50 | 21 | 0.0 | 4.0 | 0.00 | 0.00 | 0.00 | 72 | 1017.7 |
| 20260830174541 | 50 | 19 | 0.0 | 4.0 | 0.00 | 0.00 | 0.00 | 72 | 1017.7 |
| 20260830174041 | 50 | 71 | 0.0 | 4.0 | 0.00 | 0.01 | 0.00 | 73 | 1018.0 |
| 20260830173541 | 49 | 0 | 0.0 | 2.0 | 0.00 | 0.01 | 0.00 | 74 | 1018.0 |
| 20260830173041 | 49 | 70 | 0.0 | 2.0 | 0.00 | 0.01 | 0.00 | 74 | 1017.5 |
| 20260830172541 | 49 | 54 | 0.0 | 2.0 | 0.00 | 0.01 | 0.00 | 75 | 1017.7 |
| 20260830172041 | 49 | 68 | 0.0 | 2.0 | 0.00 | 0.01 | 0.00 | 75 | 1018.0 |
| 20260830171541 | 49 | 43 | 0.0 | 2.0 | 0.00 | 0.01 | 0.00 | 75 | 1017.6 |
| 20260830171041 | 49 | 0 | 0.0 | 2.0 | 0.00 | 0.01 | 0.00 | 76 | 1017.6 |
| 20260830170541 | 49 | 5 | 0.0 | 2.0 | 0.00 | 0.01 | 0.00 | 75 | 1017.6 |
| 20260830170041 | 48 | 36 | 0.0 | 2.0 | 0.00 | 0.01 | 0.00 | 75 | 1018.0 |
| 20260830165541 | 48 | 71 | 0.0 | 2.0 | 0.00 | 0.01 | 0.00 | 76 | 1017.7 |
| 20260830165041 | 48 | 0 | 0.0 | 1.0 | 0.00 | 0.01 | 0.00 | 77 | 1017.6 |
| 20260830164541 | 48 | 49 | 0.0 | 1.0 | 0.00 | 0.01 | 0.00 | 77 | 1017.7 |
| 20260830164041 | 48 | 63 | 0.0 | 4.0 | 0.00 | 0.01 | 0.00 | 77 | 1017.3 |
| 20260830163541 | 47 | 65 | 0.0 | 4.0 | 0.00 | 0.01 | 0.00 | 78 | 1018.0 |
| 20260830163041 | 47 | 82 | 0.0 | 4.0 | 0.00 | 0.01 | 0.00 | 78 | 1017.7 |
| 20260830162541 | 47 | 0 | 0.0 | 1.0 | 0.00 | 0.01 | 0.00 | 78 | 1017.9 |
| 20260830162041 | 47 | 65 | 0.0 | 1.0 | 0.00 | 0.01 | 0.00 | 79 | 1017.3 |
| 20260830161541 | 46 | 0 | 0.0 | 0.0 | 0.00 | 0.01 | 0.00 | 79 | 1017.6 |
| 20260830161041 | 47 | 0 | 0.0 | 0.0 | 0.00 | 0.01 | 0.00 | 79 | 1017.5 |
| 20260830160541 | 47 | 0 | 0.0 | 1.0 | 0.00 | 0.01 | 0.00 | 79 | 1017.9 |
| 20260830160041 | 47 | 0 | 0.0 | 1.0 | 0.00 | 0.01 | 0.00 | 79 | 1017.7 |
| 20260830155541 | 47 | 65 | 0.0 | 1.0 | 0.00 | 0.01 | 0.00 | 80 | 1018.1 |
| 20260830155041 | 46 | 0 | 0.0 | 0.0 | 0.00 | 0.01 | 0.00 | 80 | 1017.4 |
| 20260830154541 | 46 | 0 | 0.0 | 0.0 | 0.00 | 0.01 | 0.00 | 81 | 1017.7 |
| 20260830154133 | 46 | 47 | 0.0 | 2.0 | 0.00 | 0.03 | 0.00 | 81 | 1017.7 |
| 20260830154041 | 46 | 47 | 0.0 | 2.0 | 0.00 | 0.03 | 0.00 | 81 | 1017.7 |
| 20260830153541 | 46 | 0 | 0.0 | 2.0 | 0.00 | 0.03 | 0.00 | 81 | 1017.9 |
| 20260830153041 | 46 | 85 | 0.0 | 2.0 | 0.00 | 0.03 | 0.00 | 81 | 1017.5 |
| 20260830152540 | 46 | 0 | 0.0 | 0.0 | 0.00 | 0.03 | 0.00 | 81 | 1018.0 |
| 20260830152041 | 46 | 0 | 0.0 | 0.0 | 0.00 | 0.03 | 0.00 | 82 | 1017.2 |
| 20260830151541 | 46 | 0 | 0.0 | 0.0 | 0.00 | 0.03 | 0.00 | 82 | 1018.0 |
| 20260830151041 | 45 | 0 | 0.0 | 0.0 | 0.00 | 0.03 | 0.00 | 82 | 1017.5 |
| 20260830150541 | 46 | 0 | 0.0 | 0.0 | 0.00 | 0.03 | 0.00 | 82 | 1017.4 |
| 20260830150041 | 45 | 0 | 0.0 | 0.0 | 0.00 | 0.03 | 0.00 | 82 | 1017.4 |
| 20260830145541 | 45 | 0 | 0.0 | 0.0 | 0.00 | 0.03 | 0.00 | 82 | 1017.3 |
| 20260830145041 | 45 | 0 | 0.0 | 0.0 | 0.00 | 0.03 | 0.00 | 82 | 1017.1 |
| 20260830144541 | 45 | 0 | 0.0 | 0.0 | 0.00 | 0.03 | 0.00 | 82 | 1017.2 |
| 20260830144041 | 45 | 0 | 0.0 | 0.0 | 0.00 | 0.03 | 0.00 | 82 | 1017.3 |
| 20260830143540 | 45 | 0 | 0.0 | 0.0 | 0.00 | 0.03 | 0.00 | 82 | 1017.6 |
| 20260830143040 | 45 | 0 | 0.0 | 0.0 | 0.00 | 0.03 | 0.00 | 82 | 1017.4 |
| 20260830142541 | 45 | 0 | 0.0 | 0.0 | 0.00 | 0.03 | 0.00 | 82 | 1017.6 |
| 20260830142041 | 44 | 0 | 0.0 | 0.0 | 0.00 | 0.03 | 0.00 | 82 | 1017.1 |
| 20260830141541 | 44 | 0 | 0.0 | 0.0 | 0.00 | 0.03 | 0.00 | 82 | 1017.3 |
| 20260830141040 | 44 | 0 | 0.0 | 0.0 | 0.00 | 0.03 | 0.00 | 82 | 1017.1 |
| 20260830140540 | 44 | 0 | 0.0 | 0.0 | 0.00 | 0.03 | 0.00 | 83 | 1017.6 |
| 20260830140040 | 44 | 0 | 0.0 | 0.0 | 0.00 | 0.03 | 0.00 | 83 | 1017.4 |
| 20260830135540 | 44 | 0 | 0.0 | 1.0 | 0.00 | 0.03 | 0.00 | 83 | 1017.6 |
| 20260830135040 | 44 | 0 | 0.0 | 1.0 | 0.00 | 0.03 | 0.00 | 83 | 1017.1 |
| 20260830134540 | 44 | 357 | 0.0 | 1.0 | 0.00 | 0.03 | 0.00 | 83 | 1017.2 |
| 20260830134040 | 44 | 0 | 0.0 | 0.0 | 0.00 | 0.04 | 0.00 | 83 | 1017.6 |
| 20260830133540 | 44 | 0 | 0.0 | 0.0 | 0.00 | 0.04 | 0.00 | 83 | 1017.7 |
| 20260830133040 | 44 | 0 | 0.0 | 0.0 | 0.00 | 0.04 | 0.00 | 83 | 1017.4 |
| 20260830132540 | 44 | 0 | 0.0 | 0.0 | 0.00 | 0.04 | 0.00 | 83 | 1017.0 |
| 20260830132041 | 44 | 0 | 0.0 | 0.0 | 0.00 | 0.04 | 0.00 | 83 | 1017.0 |
| 20260830131540 | 44 | 0 | 0.0 | 0.0 | 0.00 | 0.04 | 0.00 | 83 | 1016.9 |
| 20260830131040 | 44 | 0 | 0.0 | 0.0 | 0.00 | 0.04 | 0.00 | 83 | 1016.9 |
| 20260830130540 | 44 | 0 | 0.0 | 0.0 | 0.00 | 0.04 | 0.00 | 83 | 1017.2 |
| 20260830130040 | 44 | 0 | 0.0 | 0.0 | 0.00 | 0.04 | 0.00 | 83 | 1017.1 |
| 20260830125540 | 44 | 0 | 0.0 | 0.0 | 0.00 | 0.04 | 0.00 | 83 | 1016.7 |
| 20260830125041 | 44 | 0 | 0.0 | 0.0 | 0.00 | 0.04 | 0.00 | 83 | 1016.9 |
| 20260830124540 | 44 | 0 | 0.0 | 0.0 | 0.00 | 0.04 | 0.00 | 83 | 1016.6 |
| 20260830124040 | 44 | 0 | 0.0 | 0.0 | 0.00 | 0.04 | 0.00 | 83 | 1016.6 |
| 20260830123540 | 44 | 0 | 0.0 | 0.0 | 0.00 | 0.04 | 0.00 | 83 | 1016.7 |
| 20260830123040 | 44 | 0 | 0.0 | 0.0 | 0.00 | 0.04 | 0.00 | 83 | 1017.0 |
| 20260830122540 | 44 | 0 | 0.0 | 0.0 | 0.00 | 0.04 | 0.00 | 82 | 1016.9 |
| 20260830122040 | 44 | 0 | 0.0 | 0.0 | 0.00 | 0.04 | 0.00 | 83 | 1017.0 |
| 20260830121540 | 44 | 0 | 0.0 | 0.0 | 0.00 | 0.04 | 0.00 | 83 | 1017.1 |
| 20260830121040 | 44 | 0 | 0.0 | 0.0 | 0.00 | 0.04 | 0.00 | 82 | 1016.7 |
| 20260830120540 | 44 | 0 | 0.0 | 0.0 | 0.00 | 0.04 | 0.00 | 82 | 1016.6 |
| 20260830120041 | 44 | 0 | 0.0 | 0.0 | 0.00 | 0.04 | 0.00 | 83 | 1017.5 |
| 20260830115540 | 45 | 0 | 0.0 | 0.0 | 0.00 | 0.04 | 0.00 | 83 | 1017.5 |
| 20260830115040 | 44 | 357 | 0.0 | 0.0 | 0.00 | 0.04 | 0.00 | 82 | 1016.6 |
| 20260830114540 | 44 | 0 | 0.0 | 0.0 | 0.00 | 0.04 | 0.00 | 82 | 1016.6 |
| 20260830114040 | 44 | 0 | 0.0 | 0.0 | 0.00 | 0.09 | 0.00 | 82 | 1016.9 |
| 20260830113540 | 44 | 0 | 0.0 | 0.0 | 0.00 | 0.09 | 0.00 | 83 | 1016.7 |
| 20260830113040 | 44 | 0 | 0.0 | 0.0 | 0.00 | 0.09 | 0.00 | 82 | 1016.6 |
| 20260830112540 | 44 | 0 | 0.0 | 0.0 | 0.00 | 0.09 | 0.00 | 82 | 1017.9 |
| 20260830112040 | 44 | 0 | 0.0 | 1.0 | 0.00 | 0.09 | 0.00 | 82 | 1016.7 |
| 20260830111540 | 44 | 0 | 0.0 | 1.0 | 0.00 | 0.09 | 0.00 | 82 | 1017.2 |
| 20260830111040 | 44 | 357 | 0.0 | 1.0 | 0.00 | 0.09 | 0.00 | 82 | 1017.1 |
| 20260830110540 | 44 | 0 | 0.0 | 0.0 | 0.00 | 0.09 | 0.00 | 82 | 1016.7 |
| 20260830110040 | 44 | 0 | 0.0 | 0.0 | 0.00 | 0.09 | 0.00 | 82 | 1016.7 |
| 20260830105540 | 44 | 0 | 0.0 | 0.0 | 0.00 | 0.09 | 0.00 | 82 | 1016.9 |
| 20260830105040 | 44 | 0 | 0.0 | 0.0 | 0.00 | 0.09 | 0.00 | 82 | 1016.7 |
| 20260830104540 | 44 | 0 | 0.0 | 0.0 | 0.00 | 0.09 | 0.00 | 82 | 1017.2 |
| 20260830104040 | 44 | 0 | 0.0 | 0.0 | 0.00 | 0.12 | 0.00 | 82 | 1017.2 |
| 20260830103540 | 44 | 0 | 0.0 | 0.0 | 0.00 | 0.12 | 0.00 | 82 | 1016.9 |
| 20260830103040 | 44 | 0 | 0.0 | 0.0 | 0.00 | 0.12 | 0.00 | 82 | 1016.9 |
| 20260830102541 | 44 | 0 | 0.0 | 0.0 | 0.00 | 0.12 | 0.00 | 82 | 1016.9 |
| 20260830102040 | 44 | 0 | 0.0 | 0.0 | 0.00 | 0.12 | 0.00 | 81 | 1016.9 |
| 20260830101540 | 44 | 0 | 0.0 | 0.0 | 0.00 | 0.12 | 0.00 | 82 | 1016.9 |
| 20260830101040 | 44 | 0 | 0.0 | 0.0 | 0.00 | 0.12 | 0.00 | 82 | 1016.9 |
| 20260830100540 | 44 | 0 | 0.0 | 0.0 | 0.00 | 0.12 | 0.00 | 81 | 1016.9 |
| 20260830100040 | 44 | 0 | 0.0 | 0.0 | 0.00 | 0.12 | 0.00 | 81 | 1016.7 |
| 20260830095541 | 44 | 0 | 0.0 | 0.0 | 0.00 | 0.12 | 0.00 | 81 | 1016.9 |
| 20260830094540 | 44 | 0 | 0.0 | 0.0 | 0.00 | 0.12 | 0.00 | 81 | 1016.9 |
| 20260830094040 | 44 | 357 | 0.0 | 0.0 | 0.00 | 0.12 | 0.00 | 81 | 1017.2 |
| 20260830093540 | 45 | 0 | 0.0 | 0.0 | 0.00 | 0.12 | 0.00 | 81 | 1016.9 |
| 20260830093040 | 45 | 0 | 0.0 | 0.0 | 0.00 | 0.12 | 0.00 | 81 | 1017.2 |
| 20260830092540 | 45 | 357 | 0.0 | 0.0 | 0.00 | 0.12 | 0.00 | 81 | 1017.5 |
| 20260830092040 | 45 | 0 | 0.0 | 0.0 | 0.00 | 0.12 | 0.00 | 81 | 1016.9 |
| 20260830091540 | 45 | 0 | 0.0 | 0.0 | 0.00 | 0.12 | 0.00 | 81 | 1017.0 |
| 20260830091040 | 45 | 0 | 0.0 | 0.0 | 0.00 | 0.12 | 0.00 | 81 | 1016.9 |
| 20260830090540 | 45 | 0 | 0.0 | 0.0 | 0.00 | 0.12 | 0.00 | 81 | 1016.9 |
| 20260830090040 | 45 | 0 | 0.0 | 0.0 | 0.00 | 0.12 | 0.00 | 81 | 1017.2 |
| 20260830085540 | 45 | 0 | 0.0 | 0.0 | 0.00 | 0.12 | 0.00 | 81 | 1016.9 |
| 20260830085040 | 45 | 0 | 0.0 | 0.0 | 0.00 | 0.12 | 0.00 | 80 | 1017.7 |
| 20260830084540 | 45 | 0 | 0.0 | 0.0 | 0.00 | 0.12 | 0.00 | 81 | 1017.0 |
| 20260830084041 | 45 | 0 | 0.0 | 0.0 | 0.00 | 0.12 | 0.00 | 81 | 1017.4 |
| 20260830083540 | 45 | 0 | 0.0 | 0.0 | 0.00 | 0.12 | 0.00 | 81 | 1017.2 |
| 20260830083041 | 45 | 0 | 0.0 | 0.0 | 0.00 | 0.12 | 0.00 | 81 | 1017.1 |
| 20260830082540 | 45 | 0 | 0.0 | 0.0 | 0.00 | 0.12 | 0.00 | 81 | 1017.1 |
| 20260830082040 | 45 | 0 | 0.0 | 0.0 | 0.00 | 0.12 | 0.00 | 81 | 1017.1 |
| 20260830081540 | 45 | 0 | 0.0 | 0.0 | 0.00 | 0.12 | 0.00 | 81 | 1017.3 |
| 20260830081040 | 45 | 0 | 0.0 | 0.0 | 0.00 | 0.12 | 0.00 | 81 | 1017.1 |
| 20260830080540 | 46 | 0 | 0.0 | 0.0 | 0.00 | 0.12 | 0.00 | 81 | 1017.1 |
| 20260830080040 | 46 | 0 | 0.0 | 0.0 | 0.00 | 0.12 | 0.00 | 81 | 1017.9 |
| 20260830075542 | 46 | 0 | 0.0 | 0.0 | 0.00 | 0.12 | 0.00 | 81 | 1017.1 |
| 20260830075040 | 46 | 0 | 0.0 | 0.0 | 0.00 | 0.12 | 0.00 | 80 | 1017.0 |
| 20260830074540 | 46 | 0 | 0.0 | 0.0 | 0.00 | 0.12 | 0.00 | 80 | 1017.0 |
| 20260830074040 | 46 | 0 | 0.0 | 0.0 | 0.00 | 0.12 | 0.00 | 80 | 1017.1 |
| 20260830073540 | 46 | 0 | 0.0 | 0.0 | 0.00 | 0.12 | 0.00 | 80 | 1017.1 |
| 20260830073040 | 46 | 0 | 0.0 | 0.0 | 0.00 | 0.12 | 0.00 | 80 | 1017.1 |
| 20260830072540 | 46 | 0 | 0.0 | 0.0 | 0.00 | 0.12 | 0.00 | 79 | 1017.1 |
| 20260830072040 | 47 | 0 | 0.0 | 0.0 | 0.00 | 0.12 | 0.00 | 78 | 1017.1 |
| 20260830071541 | 47 | 0 | 0.0 | 0.0 | 0.00 | 0.12 | 0.00 | 80 | 1017.1 |
| 20260830071040 | 47 | 0 | 0.0 | 0.0 | 0.00 | 0.12 | 0.00 | 79 | 1017.1 |
| 20260830070540 | 47 | 0 | 0.0 | 0.0 | 0.00 | 0.12 | 0.00 | 79 | 1017.1 |
| 20260830070040 | 47 | 0 | 0.0 | 0.0 | 0.00 | 0.12 | 0.00 | 79 | 1017.1 |
| 20260830065540 | 47 | 0 | 0.0 | 3.0 | 0.00 | 0.12 | 0.00 | 79 | 1017.1 |
| 20260830065040 | 47 | 357 | 0.0 | 3.0 | 0.00 | 0.12 | 0.00 | 78 | 1017.1 |
| 20260830064540 | 48 | 352 | 0.0 | 3.0 | 0.00 | 0.12 | 0.00 | 78 | 1017.1 |
| 20260830064042 | 48 | 330 | 1.0 | 3.0 | 0.00 | 0.12 | 0.00 | 78 | 1017.1 |
| 20260830063540 | 48 | 0 | 0.0 | 0.0 | 0.00 | 0.12 | 0.00 | 79 | 1017.1 |
| 20260830063041 | 48 | 30 | 0.0 | 2.0 | 0.00 | 0.12 | 0.00 | 78 | 1017.1 |
| 20260830062540 | 48 | 357 | 0.0 | 2.0 | 0.00 | 0.12 | 0.00 | 77 | 1017.0 |
| 20260830062040 | 48 | 1 | 0.0 | 2.0 | 0.00 | 0.12 | 0.00 | 78 | 1017.0 |
| 20260830061540 | 48 | 1 | 0.0 | 1.0 | 0.00 | 0.12 | 0.00 | 77 | 1017.0 |
| 20260830061039 | 48 | 0 | 0.0 | 3.0 | 0.00 | 0.12 | 0.00 | 77 | 1017.0 |
| 20260830060540 | 48 | 322 | 0.0 | 3.0 | 0.00 | 0.12 | 0.00 | 78 | 1017.1 |
| 20260830060040 | 48 | 336 | 1.0 | 3.0 | 0.00 | 0.12 | 0.00 | 78 | 1017.1 |
| 20260830055540 | 48 | 341 | 0.0 | 2.0 | 0.00 | 0.12 | 0.00 | 78 | 1017.2 |
| 20260830055040 | 48 | 12 | 0.0 | 3.0 | 0.00 | 0.12 | 0.00 | 78 | 1017.1 |
| 20260830054540 | 48 | 4 | 0.0 | 3.0 | 0.00 | 0.12 | 0.00 | 78 | 1017.2 |
| 20260830054039 | 48 | 11 | 0.0 | 3.0 | 0.00 | 0.12 | 0.00 | 79 | 1017.2 |
| 20260830053539 | 48 | 329 | 1.0 | 3.0 | 0.00 | 0.12 | 0.00 | 79 | 1017.1 |
| 20260830053039 | 48 | 352 | 0.0 | 3.0 | 0.00 | 0.12 | 0.00 | 79 | 1017.4 |
| 20260830052540 | 48 | 341 | 0.0 | 3.0 | 0.00 | 0.12 | 0.00 | 78 | 1017.7 |
| 20260830052039 | 48 | 326 | 0.0 | 1.0 | 0.00 | 0.12 | 0.00 | 79 | 1017.9 |
| 20260830051539 | 48 | 0 | 0.0 | 0.0 | 0.00 | 0.12 | 0.00 | 79 | 1017.9 |
| 20260830051039 | 48 | 0 | 0.0 | 0.0 | 0.00 | 0.12 | 0.00 | 79 | 1018.3 |
| 20260830050539 | 48 | 0 | 0.0 | 2.0 | 0.00 | 0.12 | 0.00 | 79 | 1017.3 |
| 20260830050039 | 48 | 326 | 0.0 | 2.0 | 0.00 | 0.12 | 0.00 | 79 | 1018.0 |
| 20260830045540 | 48 | 357 | 0.0 | 2.0 | 0.00 | 0.12 | 0.00 | 79 | 1017.3 |
| 20260830045039 | 48 | 0 | 0.0 | 0.0 | 0.00 | 0.12 | 0.00 | 79 | 1018.5 |
| 20260830044539 | 48 | 0 | 0.0 | 0.0 | 0.00 | 0.12 | 0.00 | 79 | 1018.3 |
| 20260830044039 | 48 | 357 | 0.0 | 0.0 | 0.00 | 0.12 | 0.00 | 79 | 1018.2 |
| 20260830043539 | 48 | 0 | 0.0 | 0.0 | 0.00 | 0.12 | 0.00 | 78 | 1018.5 |
| 20260830043039 | 49 | 0 | 0.0 | 2.0 | 0.00 | 0.12 | 0.00 | 78 | 1017.3 |
| 20260830042540 | 49 | 336 | 0.0 | 2.0 | 0.00 | 0.12 | 0.00 | 78 | 1018.3 |
| 20260830042039 | 49 | 348 | 0.0 | 2.0 | 0.00 | 0.12 | 0.00 | 78 | 1017.9 |
| 20260830041539 | 49 | 345 | 0.0 | 2.0 | 0.00 | 0.12 | 0.00 | 78 | 1018.1 |
| 20260830041039 | 49 | 54 | 0.0 | 1.0 | 0.00 | 0.12 | 0.00 | 78 | 1017.6 |
| 20260830040539 | 49 | 0 | 0.0 | 3.0 | 0.00 | 0.12 | 0.00 | 78 | 1018.2 |
| 20260830040039 | 49 | 0 | 0.0 | 3.0 | 0.00 | 0.12 | 0.00 | 78 | 1017.3 |
| 20260830035540 | 49 | 61 | 0.0 | 3.0 | 0.00 | 0.12 | 0.00 | 78 | 1017.3 |
| 20260830035041 | 49 | 330 | 0.0 | 1.0 | 0.00 | 0.12 | 0.00 | 78 | 1018.9 |
| 20260830034539 | 49 | 0 | 0.0 | 0.0 | 0.00 | 0.12 | 0.00 | 77 | 1017.6 |